| time (UTC) | temp F | wind direction | speed knots | gust knots | rain 1hr in | rain 24hr in | rain mn in | humidity % | barometer mb |
| 20260507002522 | 56 | 160 | 0.0 | 0.0 | 0.00 | 0.00 | 0.00 | 52 | 1009.4 |
| 20260507002020 | 56 | 93 | 0.0 | 1.7 | 0.00 | 0.00 | 0.00 | 51 | 1009.5 |
| 20260507001546 | 56 | 68 | 1.7 | 1.7 | 0.00 | 0.00 | 0.00 | 52 | 1009.5 |
| 20260507001037 | 56 | 110 | 0.0 | 0.0 | 0.00 | 0.00 | 0.00 | 53 | 1009.5 |
| 20260507000616 | 56 | 107 | 0.0 | 0.0 | 0.00 | 0.00 | 0.00 | 53 | 1007.9 |
| 20260507000106 | 56 | 108 | 0.0 | 1.7 | 0.00 | 0.00 | 0.00 | 53 | 1009.5 |
| 20260506235625 | 56 | 113 | 0.0 | 2.6 | 0.00 | 0.00 | 0.00 | 53 | 1007.9 |
| 20260506235039 | 56 | 108 | 0.0 | 2.6 | 0.00 | 0.00 | 0.00 | 53 | 1009.5 |
| 20260506234542 | 56 | 136 | 1.7 | 2.6 | 0.00 | 0.00 | 0.00 | 53 | 1009.5 |
| 20260506234036 | 56 | 124 | 0.0 | 1.7 | 0.00 | 0.00 | 0.00 | 54 | 1009.6 |
| 20260506233604 | 56 | 152 | 0.0 | 0.9 | 0.00 | 0.00 | 0.00 | 54 | 1007.9 |
| 20260506233043 | 56 | 119 | 0.0 | 0.0 | 0.00 | 0.00 | 0.00 | 53 | 1009.5 |
| 20260506232517 | 56 | 101 | 0.0 | 2.6 | 0.00 | 0.00 | 0.00 | 53 | 1009.4 |
| 20260506232045 | 56 | 120 | 0.0 | 10.4 | 0.00 | 0.00 | 0.00 | 53 | 1009.4 |
| 20260506231523 | 57 | 107 | 4.3 | 10.4 | 0.00 | 0.00 | 0.00 | 51 | 1009.5 |
| 20260506231031 | 57 | 205 | 0.0 | 0.0 | 0.00 | 0.00 | 0.00 | 50 | 1009.4 |
| 20260506230536 | 57 | 214 | 0.0 | 0.0 | 0.00 | 0.00 | 0.00 | 50 | 1009.5 |
| 20260506230049 | 58 | 107 | 0.0 | 0.0 | 0.00 | 0.00 | 0.00 | 50 | 1009.5 |
| 20260506225544 | 58 | 106 | 0.0 | 0.0 | 0.00 | 0.00 | 0.00 | 50 | 1009.5 |
| 20260506225022 | 59 | 97 | 0.0 | 1.7 | 0.00 | 0.00 | 0.00 | 49 | 1009.4 |
| 20260506224542 | 59 | 72 | 0.0 | 1.7 | 0.00 | 0.00 | 0.00 | 47 | 1009.4 |
| 20260506224110 | 60 | 77 | 0.0 | 0.0 | 0.00 | 0.00 | 0.00 | 43 | 1007.9 |
| 20260506223529 | 61 | 46 | 0.0 | 0.0 | 0.00 | 0.00 | 0.00 | 42 | 1009.4 |
| 20260506223045 | 61 | 318 | 0.0 | 0.0 | 0.00 | 0.00 | 0.00 | 41 | 1009.4 |
| 20260506222530 | 61 | 318 | 0.0 | 0.0 | 0.00 | 0.00 | 0.00 | 41 | 1009.4 |
| 20260506222026 | 61 | 285 | 0.0 | 0.0 | 0.00 | 0.00 | 0.00 | 41 | 1009.4 |
| 20260506221545 | 61 | 276 | 0.0 | 0.0 | 0.00 | 0.00 | 0.00 | 41 | 1009.4 |
| 20260506221052 | 61 | 316 | 0.0 | 0.0 | 0.00 | 0.00 | 0.00 | 41 | 1009.4 |
| 20260506220528 | 61 | 317 | 0.0 | 0.0 | 0.00 | 0.00 | 0.00 | 41 | 1009.4 |
| 20260506220116 | 61 | 338 | 0.0 | 0.0 | 0.00 | 0.00 | 0.00 | 40 | 1009.5 |
| 20260506215538 | 61 | 75 | 0.0 | 1.7 | 0.00 | 0.00 | 0.00 | 40 | 1009.5 |
| 20260506215033 | 62 | 312 | 0.0 | 1.7 | 0.00 | 0.00 | 0.00 | 40 | 1009.6 |
| 20260506214534 | 62 | 322 | 0.0 | 2.6 | 0.00 | 0.00 | 0.00 | 40 | 1009.6 |
| 20260506214035 | 62 | 312 | 0.0 | 2.6 | 0.00 | 0.00 | 0.00 | 40 | 1009.5 |
| 20260506213605 | 62 | 276 | 0.0 | 1.7 | 0.00 | 0.00 | 0.00 | 40 | 1008.0 |
| 20260506213021 | 62 | 281 | 0.0 | 1.7 | 0.00 | 0.00 | 0.00 | 40 | 1009.6 |
| 20260506212529 | 62 | 294 | 0.0 | 1.7 | 0.00 | 0.00 | 0.00 | 39 | 1009.6 |
| 20260506212035 | 62 | 289 | 0.9 | 1.7 | 0.00 | 0.00 | 0.00 | 38 | 1009.6 |
| 20260506211604 | 62 | 288 | 0.0 | 0.9 | 0.00 | 0.00 | 0.00 | 38 | 1008.0 |
| 20260506211022 | 63 | 317 | 0.0 | 0.9 | 0.00 | 0.00 | 0.00 | 38 | 1009.5 |
| 20260506210521 | 63 | 286 | 0.0 | 0.9 | 0.00 | 0.00 | 0.00 | 38 | 1009.5 |
| 20260506210100 | 63 | 271 | 0.0 | 0.9 | 0.00 | 0.00 | 0.00 | 37 | 1009.5 |
| 20260506205520 | 63 | 288 | 0.0 | 0.9 | 0.00 | 0.00 | 0.00 | 37 | 1009.5 |
| 20260506205037 | 63 | 286 | 0.0 | 1.7 | 0.00 | 0.00 | 0.00 | 37 | 1009.4 |
| 20260506204559 | 63 | 304 | 0.9 | 3.5 | 0.00 | 0.00 | 0.00 | 36 | 1009.4 |
| 20260506204054 | 64 | 293 | 0.0 | 3.5 | 0.00 | 0.00 | 0.00 | 36 | 1009.3 |
| 20260506203525 | 64 | 323 | 0.9 | 3.5 | 0.00 | 0.00 | 0.00 | 35 | 1009.3 |
| 20260506203034 | 64 | 300 | 0.0 | 2.6 | 0.00 | 0.00 | 0.00 | 34 | 1009.3 |
| 20260506202519 | 65 | 288 | 0.0 | 3.5 | 0.00 | 0.00 | 0.00 | 34 | 1009.3 |
| 20260506201030 | 65 | 8 | 0.0 | 2.6 | 0.00 | 0.00 | 0.00 | 33 | 1009.2 |
| 20260506200535 | 65 | 321 | 0.0 | 2.6 | 0.00 | 0.00 | 0.00 | 33 | 1009.1 |
| 20260506200052 | 65 | 280 | 0.9 | 1.7 | 0.00 | 0.00 | 0.00 | 33 | 1009.1 |
| 20260506195641 | 65 | 319 | 0.9 | 2.6 | 0.00 | 0.00 | 0.00 | 33 | 1007.5 |
| 20260506195054 | 65 | 318 | 0.0 | 2.6 | 0.00 | 0.00 | 0.00 | 33 | 1009.0 |
| 20260506194535 | 66 | 305 | 0.0 | 3.5 | 0.00 | 0.00 | 0.00 | 33 | 1009.0 |
| 20260506194032 | 66 | 319 | 1.7 | 2.6 | 0.00 | 0.00 | 0.00 | 33 | 1009.0 |
| 20260506193536 | 66 | 302 | 1.7 | 3.5 | 0.00 | 0.00 | 0.00 | 33 | 1009.0 |
| 20260506193029 | 66 | 335 | 1.7 | 3.5 | 0.00 | 0.00 | 0.00 | 33 | 1008.9 |
| 20260506192603 | 66 | 309 | 1.7 | 3.5 | 0.00 | 0.00 | 0.00 | 33 | 1007.4 |
| 20260506192019 | 66 | 309 | 1.7 | 3.5 | 0.00 | 0.00 | 0.00 | 33 | 1008.9 |
| 20260506191522 | 67 | 295 | 0.0 | 3.5 | 0.00 | 0.00 | 0.00 | 33 | 1008.9 |
| 20260506191045 | 67 | 310 | 0.0 | 2.6 | 0.00 | 0.00 | 0.00 | 33 | 1008.8 |
| 20260506190541 | 67 | 283 | 0.9 | 2.6 | 0.00 | 0.00 | 0.00 | 32 | 1008.9 |
| 20260506190056 | 67 | 317 | 0.0 | 3.5 | 0.00 | 0.00 | 0.00 | 32 | 1008.8 |
| 20260506185536 | 67 | 303 | 0.9 | 5.2 | 0.00 | 0.00 | 0.00 | 32 | 1008.9 |
| 20260506185045 | 68 | 273 | 2.6 | 5.2 | 0.00 | 0.00 | 0.00 | 31 | 1008.9 |
| 20260506184527 | 69 | 290 | 1.7 | 5.2 | 0.00 | 0.00 | 0.00 | 30 | 1008.9 |
| 20260506184102 | 70 | 352 | 2.6 | 5.2 | 0.00 | 0.00 | 0.00 | 29 | 1008.8 |
| 20260506183541 | 70 | 273 | 1.7 | 4.3 | 0.00 | 0.00 | 0.00 | 28 | 1008.8 |
| 20260506183021 | 70 | 273 | 0.0 | 3.5 | 0.00 | 0.00 | 0.00 | 28 | 1008.9 |
| 20260506182552 | 70 | 260 | 0.0 | 6.1 | 0.00 | 0.00 | 0.00 | 28 | 1008.8 |
| 20260506182018 | 70 | 108 | 0.0 | 6.1 | 0.00 | 0.00 | 0.00 | 28 | 1008.8 |
| 20260506181618 | 70 | 303 | 0.0 | 4.3 | 0.00 | 0.00 | 0.00 | 28 | 1007.2 |
| 20260506181032 | 70 | 270 | 0.9 | 5.2 | 0.00 | 0.00 | 0.00 | 28 | 1008.8 |
| 20260506180524 | 70 | 293 | 3.5 | 5.2 | 0.00 | 0.00 | 0.00 | 28 | 1008.8 |
| 20260506180052 | 70 | 312 | 0.0 | 5.2 | 0.00 | 0.00 | 0.00 | 28 | 1008.8 |
| 20260506175528 | 70 | 287 | 2.6 | 6.1 | 0.00 | 0.00 | 0.00 | 28 | 1008.8 |
| 20260506175017 | 71 | 338 | 2.6 | 6.1 | 0.00 | 0.00 | 0.00 | 28 | 1008.9 |
| 20260506174534 | 71 | 110 | 0.9 | 3.5 | 0.00 | 0.00 | 0.00 | 27 | 1009.0 |
| 20260506174052 | 71 | 271 | 1.7 | 3.5 | 0.00 | 0.00 | 0.00 | 27 | 1009.0 |
| 20260506173537 | 71 | 181 | 0.0 | 3.5 | 0.00 | 0.00 | 0.00 | 27 | 1009.0 |
| 20260506173036 | 71 | 284 | 0.0 | 6.1 | 0.00 | 0.00 | 0.00 | 27 | 1009.0 |
| 20260506172522 | 72 | 254 | 1.7 | 6.1 | 0.00 | 0.00 | 0.00 | 27 | 1009.1 |
| 20260506172032 | 72 | 222 | 3.5 | 5.2 | 0.00 | 0.00 | 0.00 | 26 | 1009.1 |
| 20260506171602 | 71 | 245 | 0.0 | 5.2 | 0.00 | 0.00 | 0.00 | 27 | 1009.0 |
| 20260506171109 | 71 | 276 | 0.9 | 5.2 | 0.00 | 0.00 | 0.00 | 26 | 1007.4 |
| 20260506170530 | 71 | 165 | 2.6 | 5.2 | 0.00 | 0.00 | 0.00 | 27 | 1009.1 |
| 20260506165528 | 73 | 238 | 2.6 | 3.5 | 0.00 | 0.00 | 0.00 | 26 | 1009.1 |
| 20260506165017 | 72 | 270 | 0.0 | 2.6 | 0.00 | 0.00 | 0.00 | 27 | 1009.1 |
| 20260506164623 | 72 | 125 | 0.9 | 2.6 | 0.00 | 0.00 | 0.00 | 25 | 1007.5 |
| 20260506164025 | 73 | 17 | 0.0 | 0.9 | 0.00 | 0.00 | 0.00 | 26 | 1009.2 |
| 20260506163147 | 71 | 322 | 1.7 | 5.2 | 0.00 | 0.00 | 0.00 | 27 | 1007.6 |
| 20260506162526 | 71 | 165 | 1.7 | 4.3 | 0.00 | 0.00 | 0.00 | 27 | 1009.2 |
| 20260506162116 | 72 | 297 | 2.6 | 6.1 | 0.00 | 0.00 | 0.00 | 26 | 1007.7 |
| 20260506161610 | 73 | 146 | 0.9 | 6.1 | 0.00 | 0.00 | 0.00 | 26 | 1007.7 |
| 20260506161039 | 73 | 269 | 0.9 | 4.3 | 0.00 | 0.00 | 0.00 | 26 | 1009.3 |
| 20260506160522 | 73 | 304 | 2.6 | 4.3 | 0.00 | 0.00 | 0.00 | 26 | 1009.3 |
| 20260506160057 | 73 | 290 | 0.0 | 7.0 | 0.00 | 0.00 | 0.00 | 26 | 1009.3 |
| 20260506155541 | 73 | 323 | 1.7 | 7.0 | 0.00 | 0.00 | 0.00 | 26 | 1009.3 |
| 20260506155040 | 73 | 126 | 1.7 | 6.1 | 0.00 | 0.00 | 0.00 | 26 | 1009.4 |
| 20260506154522 | 73 | 345 | 2.6 | 6.1 | 0.00 | 0.00 | 0.00 | 26 | 1009.5 |
| 20260506154017 | 73 | 27 | 1.7 | 4.3 | 0.00 | 0.00 | 0.00 | 26 | 1009.5 |
| 20260506153540 | 73 | 119 | 0.0 | 3.5 | 0.00 | 0.00 | 0.00 | 26 | 1009.6 |
| 20260506153022 | 73 | 345 | 0.9 | 4.3 | 0.00 | 0.00 | 0.00 | 27 | 1009.6 |
| 20260506152539 | 73 | 93 | 2.6 | 4.3 | 0.00 | 0.00 | 0.00 | 26 | 1009.6 |
| 20260506152028 | 73 | 93 | 0.9 | 3.5 | 0.00 | 0.00 | 0.00 | 26 | 1009.7 |
| 20260506151532 | 73 | 244 | 0.0 | 5.2 | 0.00 | 0.00 | 0.00 | 27 | 1009.7 |
| 20260506151051 | 73 | 317 | 1.7 | 5.2 | 0.00 | 0.00 | 0.00 | 26 | 1009.7 |
| 20260506150555 | 72 | 75 | 0.0 | 3.5 | 0.00 | 0.00 | 0.00 | 27 | 1009.8 |
| 20260506145528 | 72 | 265 | 0.9 | 6.1 | 0.00 | 0.00 | 0.00 | 28 | 1010.0 |
| 20260506144536 | 72 | 53 | 0.0 | 6.1 | 0.00 | 0.00 | 0.00 | 28 | 1010.1 |
| 20260506144029 | 71 | 13 | 0.0 | 7.0 | 0.00 | 0.00 | 0.00 | 29 | 1010.1 |
| 20260506143517 | 70 | 70 | 1.7 | 7.8 | 0.00 | 0.00 | 0.00 | 29 | 1010.2 |
| 20260506143041 | 70 | 285 | 3.5 | 7.8 | 0.00 | 0.00 | 0.00 | 30 | 1010.2 |
| 20260506142628 | 70 | 70 | 2.6 | 7.8 | 0.00 | 0.00 | 0.00 | 30 | 1008.8 |
| 20260506142023 | 70 | 65 | 1.7 | 7.8 | 0.00 | 0.00 | 0.00 | 31 | 1010.4 |
| 20260506141618 | 71 | 106 | 3.5 | 6.1 | 0.00 | 0.00 | 0.00 | 29 | 1008.9 |
| 20260506141016 | 71 | 311 | 0.9 | 6.1 | 0.00 | 0.00 | 0.00 | 29 | 1010.7 |
| 20260506140528 | 71 | 92 | 2.6 | 6.1 | 0.00 | 0.00 | 0.00 | 28 | 1010.7 |
| 20260506135516 | 70 | 245 | 1.7 | 7.8 | 0.00 | 0.00 | 0.00 | 30 | 1010.8 |
| 20260506134550 | 69 | 89 | 1.7 | 5.2 | 0.00 | 0.00 | 0.00 | 30 | 1010.8 |
| 20260506134033 | 68 | 134 | 0.9 | 2.6 | 0.00 | 0.00 | 0.00 | 31 | 1010.9 |
| 20260506133521 | 67 | 283 | 0.9 | 2.6 | 0.00 | 0.00 | 0.00 | 31 | 1011.0 |
| 20260506133028 | 67 | 105 | 0.0 | 3.5 | 0.00 | 0.00 | 0.00 | 32 | 1011.0 |
| 20260506132523 | 66 | 277 | 1.7 | 5.2 | 0.00 | 0.00 | 0.00 | 33 | 1011.0 |
| 20260506132036 | 66 | 241 | 3.5 | 6.1 | 0.00 | 0.00 | 0.00 | 33 | 1011.1 |
| 20260506131519 | 67 | 226 | 3.5 | 5.2 | 0.00 | 0.00 | 0.00 | 32 | 1011.1 |
| 20260506131049 | 68 | 208 | 2.6 | 4.3 | 0.00 | 0.00 | 0.00 | 32 | 1011.1 |
| 20260506130523 | 69 | 353 | 0.9 | 2.6 | 0.00 | 0.00 | 0.00 | 31 | 1011.2 |
| 20260506130042 | 69 | 330 | 0.0 | 5.2 | 0.00 | 0.00 | 0.00 | 32 | 1011.2 |
| 20260506125543 | 68 | 177 | 0.9 | 5.2 | 0.00 | 0.00 | 0.00 | 33 | 1011.2 |
| 20260506125033 | 69 | 139 | 2.6 | 5.2 | 0.00 | 0.00 | 0.00 | 31 | 1011.3 |
| 20260506124603 | 70 | 82 | 1.7 | 3.5 | 0.00 | 0.00 | 0.00 | 31 | 1011.3 |
| 20260506124041 | 70 | 113 | 2.6 | 3.5 | 0.00 | 0.00 | 0.00 | 31 | 1011.4 |
| 20260506123539 | 70 | 305 | 0.0 | 3.5 | 0.00 | 0.00 | 0.00 | 31 | 1011.4 |
| 20260506123024 | 69 | 247 | 0.9 | 4.3 | 0.00 | 0.00 | 0.00 | 31 | 1011.4 |
| 20260506122539 | 69 | 134 | 1.7 | 7.0 | 0.00 | 0.00 | 0.00 | 32 | 1011.4 |
| 20260506122019 | 69 | 244 | 3.5 | 7.0 | 0.00 | 0.00 | 0.00 | 31 | 1011.5 |
| 20260506121549 | 69 | 180 | 1.7 | 6.1 | 0.00 | 0.00 | 0.00 | 32 | 1011.7 |
| 20260506121019 | 67 | 220 | 2.6 | 7.8 | 0.00 | 0.00 | 0.00 | 33 | 1011.8 |
| 20260506120518 | 67 | 135 | 2.6 | 7.8 | 0.00 | 0.00 | 0.00 | 33 | 1011.7 |
| 20260506120136 | 67 | 187 | 1.7 | 6.1 | 0.00 | 0.00 | 0.00 | 32 | 1010.2 |
| 20260506115539 | 67 | 309 | 2.6 | 6.1 | 0.00 | 0.00 | 0.00 | 33 | 1011.9 |
| 20260506115029 | 68 | 216 | 0.9 | 5.2 | 0.00 | 0.00 | 0.00 | 33 | 1011.9 |
| 20260506114601 | 69 | 118 | 3.5 | 5.2 | 0.00 | 0.00 | 0.00 | 32 | 1012.0 |
| 20260506114044 | 69 | 79 | 0.0 | 2.6 | 0.00 | 0.00 | 0.00 | 33 | 1012.0 |
| 20260506113529 | 67 | 250 | 0.0 | 3.5 | 0.00 | 0.00 | 0.00 | 35 | 1012.1 |
| 20260506113033 | 67 | 158 | 2.6 | 6.1 | 0.00 | 0.00 | 0.00 | 34 | 1012.1 |
| 20260506112535 | 66 | 113 | 3.5 | 7.0 | 0.00 | 0.00 | 0.00 | 36 | 1012.2 |
| 20260506111522 | 66 | 108 | 2.6 | 6.1 | 0.00 | 0.00 | 0.00 | 36 | 1012.2 |
| 20260506111025 | 66 | 70 | 1.7 | 7.0 | 0.00 | 0.00 | 0.00 | 37 | 1012.2 |
| 20260506110521 | 65 | 176 | 1.7 | 7.8 | 0.00 | 0.00 | 0.00 | 37 | 1012.3 |
| 20260506110049 | 65 | 121 | 0.0 | 7.8 | 0.00 | 0.00 | 0.00 | 36 | 1012.3 |
| 20260506105533 | 65 | 229 | 3.5 | 5.2 | 0.00 | 0.00 | 0.00 | 37 | 1012.4 |
| 20260506105128 | 65 | 233 | 2.6 | 6.1 | 0.00 | 0.00 | 0.00 | 37 | 1010.8 |
| 20260506104617 | 65 | 295 | 3.5 | 6.1 | 0.00 | 0.00 | 0.00 | 37 | 1010.8 |
| 20260506104027 | 64 | 329 | 0.0 | 7.0 | 0.00 | 0.00 | 0.00 | 39 | 1012.5 |
| 20260506103042 | 64 | 76 | 0.0 | 9.6 | 0.00 | 0.00 | 0.00 | 40 | 1012.5 |
| 20260506102543 | 64 | 118 | 2.6 | 8.7 | 0.00 | 0.00 | 0.00 | 39 | 1012.5 |
| 20260506102031 | 64 | 77 | 4.3 | 8.7 | 0.00 | 0.00 | 0.00 | 38 | 1012.6 |
| 20260506101541 | 65 | 152 | 5.2 | 8.7 | 0.00 | 0.00 | 0.00 | 37 | 1012.6 |
| 20260506101024 | 65 | 77 | 0.9 | 6.1 | 0.00 | 0.00 | 0.00 | 39 | 1012.6 |
| 20260506100521 | 64 | 204 | 0.9 | 7.0 | 0.00 | 0.00 | 0.00 | 39 | 1012.8 |
| 20260506100043 | 64 | 122 | 1.7 | 7.0 | 0.00 | 0.00 | 0.00 | 42 | 1012.7 |
| 20260506095026 | 64 | 314 | 0.0 | 5.2 | 0.00 | 0.00 | 0.00 | 43 | 1012.7 |
| 20260506094618 | 64 | 15 | 0.9 | 5.2 | 0.00 | 0.00 | 0.00 | 43 | 1011.1 |
| 20260506094031 | 64 | 353 | 0.9 | 2.6 | 0.00 | 0.00 | 0.00 | 43 | 1012.6 |
| 20260506093606 | 62 | 124 | 0.9 | 3.5 | 0.00 | 0.00 | 0.00 | 46 | 1011.0 |
| 20260506093030 | 62 | 238 | 2.6 | 6.1 | 0.00 | 0.00 | 0.00 | 44 | 1012.6 |
| 20260506092551 | 62 | 124 | 1.7 | 6.1 | 0.00 | 0.00 | 0.00 | 43 | 1012.6 |
| 20260506092016 | 63 | 153 | 2.6 | 4.3 | 0.00 | 0.00 | 0.00 | 43 | 1012.6 |
| 20260506091534 | 62 | 292 | 1.7 | 5.2 | 0.00 | 0.00 | 0.00 | 44 | 1012.6 |
| 20260506091020 | 61 | 105 | 0.0 | 5.2 | 0.00 | 0.00 | 0.00 | 46 | 1012.6 |
| 20260506090519 | 61 | 142 | 2.6 | 6.1 | 0.00 | 0.00 | 0.00 | 46 | 1012.6 |
| 20260506090047 | 61 | 67 | 4.3 | 6.1 | 0.00 | 0.00 | 0.00 | 45 | 1012.6 |
| 20260506084541 | 61 | 89 | 3.5 | 5.2 | 0.00 | 0.00 | 0.00 | 47 | 1012.7 |
| 20260506084034 | 61 | 130 | 2.6 | 4.3 | 0.00 | 0.00 | 0.00 | 47 | 1012.7 |
| 20260506083517 | 61 | 108 | 0.0 | 1.7 | 0.00 | 0.00 | 0.00 | 49 | 1012.6 |
| 20260506083100 | 60 | 100 | 0.0 | 4.3 | 0.00 | 0.00 | 0.00 | 49 | 1012.7 |
| 20260506082520 | 61 | 94 | 0.0 | 4.3 | 0.00 | 0.00 | 0.00 | 49 | 1012.7 |
| 20260506082041 | 61 | 103 | 0.0 | 3.5 | 0.00 | 0.00 | 0.00 | 49 | 1012.7 |
| 20260506081024 | 60 | 359 | 0.0 | 0.9 | 0.00 | 0.00 | 0.00 | 53 | 1012.8 |
| 20260506080548 | 59 | 124 | 0.0 | 2.6 | 0.00 | 0.00 | 0.00 | 54 | 1012.8 |
| 20260506073522 | 56 | 101 | 1.7 | 3.5 | 0.00 | 0.00 | 0.00 | 57 | 1012.8 |
| 20260506073025 | 56 | 86 | 2.6 | 3.5 | 0.00 | 0.00 | 0.00 | 56 | 1012.9 |
| 20260506072616 | 57 | 66 | 0.9 | 2.6 | 0.00 | 0.00 | 0.00 | 57 | 1011.3 |
| 20260506072019 | 57 | 77 | 1.7 | 2.6 | 0.00 | 0.00 | 0.00 | 56 | 1011.9 |
| 20260506071528 | 56 | 330 | 0.0 | 1.7 | 0.00 | 0.00 | 0.00 | 57 | 1012.0 |
| 20260506070534 | 56 | 54 | 0.0 | 0.9 | 0.00 | 0.00 | 0.00 | 57 | 1011.9 |
| 20260506062048 | 52 | 284 | 0.0 | 0.0 | 0.00 | 0.00 | 0.00 | 64 | 1012.0 |
| 20260506061558 | 51 | 286 | 0.0 | 0.0 | 0.00 | 0.00 | 0.00 | 65 | 1011.9 |
| 20260506061036 | 51 | 285 | 0.0 | 0.0 | 0.00 | 0.00 | 0.00 | 66 | 1011.9 |
| 20260506060520 | 50 | 242 | 0.0 | 0.0 | 0.00 | 0.00 | 0.00 | 66 | 1011.9 |
| 20260506051027 | 49 | 254 | 0.0 | 0.0 | 0.00 | 0.00 | 0.00 | 68 | 1011.8 |
| 20260506050536 | 49 | 253 | 0.0 | 0.0 | 0.00 | 0.00 | 0.00 | 68 | 1011.8 |
| 20260506050108 | 49 | 253 | 0.0 | 0.0 | 0.00 | 0.00 | 0.00 | 68 | 1011.8 |
| 20260506045018 | 49 | 278 | 0.0 | 0.9 | 0.00 | 0.00 | 0.00 | 68 | 1011.8 |
| 20260506044524 | 49 | 278 | 0.0 | 0.0 | 0.00 | 0.00 | 0.00 | 67 | 1011.7 |
| 20260506044026 | 49 | 277 | 0.0 | 0.0 | 0.00 | 0.00 | 0.00 | 67 | 1011.7 |
| 20260506043523 | 49 | 280 | 0.0 | 0.0 | 0.00 | 0.00 | 0.00 | 67 | 1011.7 |
| 20260506043022 | 49 | 249 | 0.0 | 0.0 | 0.00 | 0.00 | 0.00 | 68 | 1011.6 |
| 20260506042524 | 49 | 245 | 0.0 | 1.7 | 0.00 | 0.00 | 0.00 | 68 | 1011.6 |
| 20260506042017 | 49 | 246 | 0.0 | 1.7 | 0.00 | 0.00 | 0.00 | 68 | 1011.7 |
| 20260506041516 | 49 | 344 | 0.0 | 0.0 | 0.00 | 0.00 | 0.00 | 68 | 1011.7 |
| 20260506041016 | 49 | 353 | 0.0 | 0.0 | 0.00 | 0.00 | 0.00 | 68 | 1011.7 |
| 20260506040544 | 49 | 360 | 0.0 | 0.0 | 0.00 | 0.00 | 0.00 | 67 | 1011.6 |
| 20260506040046 | 49 | 360 | 0.0 | 0.0 | 0.00 | 0.00 | 0.00 | 67 | 1011.6 |
| 20260506035528 | 50 | 68 | 0.0 | 0.9 | 0.00 | 0.00 | 0.00 | 66 | 1011.6 |
| 20260506035125 | 50 | 68 | 0.0 | 0.9 | 0.00 | 0.00 | 0.00 | 66 | 1010.9 |
| 20260506034529 | 50 | 39 | 0.0 | 0.0 | 0.00 | 0.00 | 0.00 | 66 | 1011.7 |
| 20260506034041 | 50 | 22 | 0.0 | 0.0 | 0.00 | 0.00 | 0.00 | 65 | 1011.7 |
| 20260506033529 | 51 | 31 | 0.0 | 0.9 | 0.00 | 0.00 | 0.00 | 63 | 1011.7 |
| 20260506033051 | 51 | 290 | 0.0 | 0.9 | 0.00 | 0.00 | 0.00 | 62 | 1011.6 |
| 20260506032535 | 51 | 110 | 0.0 | 0.0 | 0.00 | 0.00 | 0.00 | 62 | 1011.6 |
| 20260506032017 | 51 | 342 | 0.0 | 0.0 | 0.00 | 0.00 | 0.00 | 62 | 1011.6 |
| 20260506031530 | 51 | 12 | 0.0 | 0.0 | 0.00 | 0.00 | 0.00 | 61 | 1011.6 |
| 20260506031051 | 51 | 340 | 0.0 | 0.9 | 0.00 | 0.00 | 0.00 | 61 | 1011.6 |
| 20260506030548 | 51 | 339 | 0.0 | 0.9 | 0.00 | 0.00 | 0.00 | 61 | 1011.6 |
| 20260506030113 | 51 | 20 | 0.0 | 0.0 | 0.00 | 0.00 | 0.00 | 61 | 1011.6 |
| 20260506025534 | 51 | 19 | 0.0 | 0.0 | 0.00 | 0.00 | 0.00 | 61 | 1011.6 |
| 20260506025052 | 51 | 28 | 0.0 | 0.0 | 0.00 | 0.00 | 0.00 | 60 | 1011.6 |
| 20260506024538 | 51 | 29 | 0.0 | 0.0 | 0.00 | 0.00 | 0.00 | 60 | 1011.6 |
| 20260506024051 | 51 | 29 | 0.0 | 0.0 | 0.00 | 0.00 | 0.00 | 59 | 1011.7 |
| 20260506023549 | 51 | 29 | 0.0 | 0.0 | 0.00 | 0.00 | 0.00 | 60 | 1011.7 |
| 20260506023037 | 51 | 28 | 0.0 | 0.0 | 0.00 | 0.00 | 0.00 | 60 | 1011.7 |
| 20260506022539 | 52 | 300 | 0.0 | 0.0 | 0.00 | 0.00 | 0.00 | 59 | 1011.6 |
| 20260506022033 | 52 | 300 | 0.0 | 0.0 | 0.00 | 0.00 | 0.00 | 58 | 1011.6 |
| 20260506021535 | 52 | 300 | 0.0 | 0.0 | 0.00 | 0.00 | 0.00 | 58 | 1011.7 |
| 20260506021039 | 52 | 300 | 0.0 | 0.0 | 0.00 | 0.00 | 0.00 | 58 | 1011.7 |
| 20260506020553 | 52 | 300 | 0.0 | 0.0 | 0.00 | 0.00 | 0.00 | 58 | 1011.7 |
| 20260506020051 | 52 | 288 | 0.0 | 0.9 | 0.00 | 0.00 | 0.00 | 58 | 1011.7 |
| 20260506015530 | 52 | 302 | 0.9 | 0.9 | 0.00 | 0.00 | 0.00 | 58 | 1011.7 |
| 20260506015145 | 52 | 302 | 0.0 | 1.7 | 0.00 | 0.00 | 0.00 | 58 | 1011.2 |
| 20260506014028 | 51 | 294 | 0.0 | 0.9 | 0.00 | 0.00 | 0.00 | 60 | 1011.9 |
| 20260506013521 | 51 | 329 | 0.0 | 2.6 | 0.00 | 0.00 | 0.00 | 60 | 1012.0 |
| 20260506013042 | 51 | 314 | 0.9 | 4.3 | 0.00 | 0.00 | 0.00 | 60 | 1012.0 |
| 20260506012517 | 51 | 60 | 0.9 | 4.3 | 0.00 | 0.00 | 0.00 | 59 | 1012.0 |
| 20260506012040 | 52 | 57 | 1.7 | 7.0 | 0.00 | 0.00 | 0.00 | 58 | 1012.1 |
| 20260506011541 | 52 | 329 | 2.6 | 7.0 | 0.00 | 0.00 | 0.00 | 57 | 1012.1 |
| 20260506011027 | 53 | 340 | 0.0 | 1.7 | 0.00 | 0.00 | 0.00 | 57 | 1012.9 |
| 20260506005516 | 53 | 283 | 0.9 | 1.7 | 0.00 | 0.00 | 0.00 | 56 | 1013.0 |
| 20260506005103 | 53 | 284 | 0.9 | 2.6 | 0.00 | 0.00 | 0.00 | 57 | 1013.0 |
| 20260506003608 | 53 | 284 | 1.7 | 2.6 | 0.00 | 0.00 | 0.00 | 57 | 1011.6 |
| 20260506003029 | 53 | 260 | 1.7 | 2.6 | 0.00 | 0.00 | 0.00 | 56 | 1013.2 |